| time (UTC) | temp F | wind direction | speed MPH | gust MPH | rain 1hr in | rain 24hr in | rain mn in | humidity % | barometer mb |
| 20260504215308 | 82 | 196 | 15.0 | 26.0 | 0.00 | 0.00 | 0.00 | 56 | 1005.3 |
| 20260504214807 | 82 | 172 | 15.0 | 24.0 | 0.00 | 0.00 | 0.00 | 56 | 1005.3 |
| 20260504214308 | 81 | 178 | 12.0 | 26.0 | 0.00 | 0.00 | 0.00 | 57 | 1005.3 |
| 20260504213807 | 81 | 191 | 12.0 | 25.0 | 0.00 | 0.00 | 0.00 | 57 | 1006.1 |
| 20260504212308 | 81 | 183 | 14.0 | 22.0 | 0.00 | 0.00 | 0.00 | 57 | 1006.1 |
| 20260504211308 | 81 | 179 | 11.0 | 23.0 | 0.00 | 0.00 | 0.00 | 57 | 1006.1 |
| 20260504210807 | 81 | 180 | 16.0 | 25.0 | 0.00 | 0.00 | 0.00 | 56 | 1006.1 |
| 20260504205808 | 81 | 198 | 13.0 | 25.0 | 0.00 | 0.00 | 0.00 | 56 | 1006.1 |
| 20260504204808 | 81 | 183 | 16.0 | 25.0 | 0.00 | 0.00 | 0.00 | 56 | 1007.1 |
| 20260504204307 | 81 | 156 | 12.0 | 24.0 | 0.00 | 0.00 | 0.00 | 56 | 1007.1 |
| 20260504203307 | 81 | 165 | 16.0 | 26.0 | 0.00 | 0.00 | 0.00 | 55 | 1007.1 |
| 20260504201308 | 82 | 168 | 12.0 | 23.0 | 0.00 | 0.00 | 0.00 | 55 | 1007.1 |
| 20260504194808 | 81 | 183 | 11.0 | 18.0 | 0.00 | 0.00 | 0.00 | 54 | 1008.1 |
| 20260504192807 | 81 | 178 | 13.0 | 21.0 | 0.00 | 0.00 | 0.00 | 54 | 1008.1 |
| 20260504191807 | 79 | 180 | 13.0 | 25.0 | 0.00 | 0.00 | 0.00 | 55 | 1008.1 |
| 20260504190807 | 80 | 196 | 14.0 | 25.0 | 0.00 | 0.00 | 0.00 | 53 | 1008.1 |
| 20260504185807 | 80 | 165 | 16.0 | 23.0 | 0.00 | 0.00 | 0.00 | 53 | 1008.3 |
| 20260504184807 | 79 | 187 | 12.0 | 29.0 | 0.00 | 0.00 | 0.00 | 54 | 1008.3 |
| 20260504182807 | 79 | 189 | 13.0 | 20.0 | 0.00 | 0.00 | 0.00 | 53 | 1008.5 |
| 20260504182307 | 80 | 163 | 13.0 | 26.0 | 0.00 | 0.00 | 0.00 | 52 | 1008.8 |
| 20260504181307 | 79 | 189 | 13.0 | 21.0 | 0.00 | 0.00 | 0.00 | 51 | 1008.8 |
| 20260504180807 | 79 | 179 | 11.0 | 20.0 | 0.00 | 0.00 | 0.00 | 52 | 1008.9 |
| 20260504180307 | 79 | 194 | 14.0 | 25.0 | 0.00 | 0.00 | 0.00 | 52 | 1008.8 |
| 20260504175808 | 78 | 199 | 10.0 | 25.0 | 0.00 | 0.00 | 0.00 | 53 | 1008.8 |
| 20260504174807 | 78 | 167 | 16.0 | 26.0 | 0.00 | 0.00 | 0.00 | 52 | 1009.3 |
| 20260504172807 | 77 | 189 | 11.0 | 24.0 | 0.00 | 0.00 | 0.00 | 53 | 1009.5 |
| 20260504172307 | 77 | 187 | 11.0 | 24.0 | 0.00 | 0.00 | 0.00 | 54 | 1009.6 |
| 20260504171807 | 77 | 194 | 13.0 | 26.0 | 0.00 | 0.00 | 0.00 | 52 | 1009.6 |
| 20260504170807 | 77 | 174 | 13.0 | 25.0 | 0.00 | 0.00 | 0.00 | 53 | 1009.8 |
| 20260504160307 | 74 | 193 | 16.0 | 25.0 | 0.00 | 0.00 | 0.00 | 56 | 1010.6 |
| 20260504150306 | 70 | 191 | 12.0 | 22.0 | 0.00 | 0.00 | 0.00 | 64 | 1011.1 |
| 20260504141306 | 67 | 186 | 12.0 | 21.0 | 0.00 | 0.00 | 0.00 | 68 | 1011.3 |
| 20260504140306 | 67 | 197 | 10.0 | 23.0 | 0.00 | 0.00 | 0.00 | 69 | 1011.3 |
| 20260504130306 | 65 | 189 | 9.0 | 20.0 | 0.00 | 0.00 | 0.00 | 71 | 1011.4 |
| 20260504120306 | 64 | 192 | 9.0 | 18.0 | 0.00 | 0.00 | 0.00 | 68 | 1011.0 |
| 20260504110306 | 64 | 187 | 10.0 | 18.0 | 0.00 | 0.00 | 0.00 | 68 | 1010.7 |
| 20260504080805 | 66 | 185 | 9.0 | 16.0 | 0.00 | 0.00 | 0.00 | 56 | 1011.7 |
| 20260504080305 | 67 | 181 | 7.0 | 13.0 | 0.00 | 0.00 | 0.00 | 55 | 1011.7 |
| 20260504043805 | 69 | 174 | 5.0 | 7.0 | 0.00 | 0.00 | 0.00 | 51 | 1014.0 |
| 20260504043304 | 70 | 181 | 5.0 | 7.0 | 0.00 | 0.00 | 0.00 | 50 | 1014.0 |
| 20260504042804 | 70 | 185 | 4.0 | 8.0 | 0.00 | 0.00 | 0.00 | 49 | 1014.0 |
| 20260504042305 | 70 | 172 | 4.0 | 8.0 | 0.00 | 0.00 | 0.00 | 49 | 1014.0 |
| 20260504041805 | 70 | 173 | 6.0 | 12.0 | 0.00 | 0.00 | 0.00 | 48 | 1014.0 |
| 20260504040305 | 71 | 170 | 7.0 | 13.0 | 0.00 | 0.00 | 0.00 | 47 | 1014.0 |
| 20260504035805 | 71 | 167 | 7.0 | 14.0 | 0.00 | 0.00 | 0.00 | 47 | 1014.0 |
| 20260504035305 | 71 | 176 | 7.0 | 12.0 | 0.00 | 0.00 | 0.00 | 47 | 1014.0 |
| 20260504034304 | 71 | 184 | 7.0 | 12.0 | 0.00 | 0.00 | 0.00 | 47 | 1014.0 |
| 20260504033804 | 71 | 172 | 7.0 | 12.0 | 0.00 | 0.00 | 0.00 | 47 | 1013.9 |
| 20260504033305 | 71 | 179 | 8.0 | 14.0 | 0.00 | 0.00 | 0.00 | 47 | 1013.9 |
| 20260504032805 | 71 | 187 | 7.0 | 13.0 | 0.00 | 0.00 | 0.00 | 47 | 1013.9 |
| 20260504031304 | 72 | 190 | 6.0 | 10.0 | 0.00 | 0.00 | 0.00 | 47 | 1014.0 |
| 20260504030804 | 72 | 186 | 5.0 | 10.0 | 0.00 | 0.00 | 0.00 | 47 | 1013.8 |
| 20260504025805 | 72 | 204 | 6.0 | 10.0 | 0.00 | 0.00 | 0.00 | 46 | 1013.7 |
| 20260504024804 | 72 | 181 | 6.0 | 9.0 | 0.00 | 0.00 | 0.00 | 45 | 1013.7 |
| 20260504024305 | 73 | 172 | 8.0 | 12.0 | 0.00 | 0.00 | 0.00 | 45 | 1013.8 |
| 20260504023304 | 73 | 193 | 9.0 | 16.0 | 0.00 | 0.00 | 0.00 | 45 | 1013.8 |
| 20260504022804 | 73 | 169 | 7.0 | 13.0 | 0.00 | 0.00 | 0.00 | 45 | 1013.8 |
| 20260504020804 | 74 | 159 | 6.0 | 8.0 | 0.00 | 0.00 | 0.00 | 44 | 1013.8 |
| 20260504020304 | 74 | 186 | 5.0 | 9.0 | 0.00 | 0.00 | 0.00 | 43 | 1013.5 |
| 20260504014309 | 74 | 180 | 5.0 | 10.0 | 0.00 | 0.00 | 0.00 | 41 | 1013.5 |
| 20260504013808 | 75 | 177 | 7.0 | 12.0 | 0.00 | 0.00 | 0.00 | 40 | 1013.5 |
| 20260504013308 | 75 | 158 | 6.0 | 10.0 | 0.00 | 0.00 | 0.00 | 39 | 1013.5 |
| 20260504012309 | 75 | 190 | 7.0 | 13.0 | 0.00 | 0.00 | 0.00 | 38 | 1013.5 |
| 20260504011309 | 76 | 169 | 7.0 | 15.0 | 0.00 | 0.00 | 0.00 | 37 | 1013.2 |
| 20260504010808 | 76 | 187 | 6.0 | 12.0 | 0.00 | 0.00 | 0.00 | 38 | 1013.2 |
| 20260504010308 | 76 | 195 | 6.0 | 13.0 | 0.00 | 0.00 | 0.00 | 37 | 1013.2 |
| 20260504003308 | 78 | 175 | 10.0 | 16.0 | 0.00 | 0.00 | 0.00 | 35 | 1013.5 |
| 20260504001807 | 79 | 198 | 7.0 | 16.0 | 0.00 | 0.00 | 0.00 | 35 | 1013.5 |
| 20260504001308 | 79 | 170 | 3.0 | 13.0 | 0.00 | 0.00 | 0.00 | 35 | 1013.5 |
| 20260504000308 | 79 | 187 | 7.0 | 15.0 | 0.00 | 0.00 | 0.00 | 34 | 1013.5 |
| 20260503235808 | 79 | 172 | 9.0 | 16.0 | 0.00 | 0.00 | 0.00 | 33 | 1013.5 |
| 20260503235308 | 80 | 174 | 9.0 | 16.0 | 0.00 | 0.00 | 0.00 | 33 | 1013.5 |
| 20260503234808 | 80 | 196 | 9.0 | 18.0 | 0.00 | 0.00 | 0.00 | 33 | 1013.6 |
| 20260503233308 | 80 | 198 | 8.0 | 21.0 | 0.00 | 0.00 | 0.00 | 33 | 1013.7 |
| 20260503232308 | 80 | 175 | 12.0 | 20.0 | 0.00 | 0.00 | 0.00 | 32 | 1013.7 |
| 20260503230808 | 81 | 198 | 9.0 | 18.0 | 0.00 | 0.00 | 0.00 | 32 | 1013.8 |
| 20260503225808 | 82 | 193 | 8.0 | 13.0 | 0.00 | 0.00 | 0.00 | 31 | 1013.8 |
| 20260503224808 | 82 | 158 | 10.0 | 17.0 | 0.00 | 0.00 | 0.00 | 31 | 1014.1 |
| 20260503223308 | 83 | 230 | 6.0 | 14.0 | 0.00 | 0.00 | 0.00 | 32 | 1014.1 |
| 20260503222808 | 82 | 192 | 5.0 | 21.0 | 0.00 | 0.00 | 0.00 | 33 | 1014.1 |
| 20260503222307 | 82 | 205 | 6.0 | 20.0 | 0.00 | 0.00 | 0.00 | 33 | 1014.1 |
| 20260503221807 | 82 | 224 | 7.0 | 15.0 | 0.00 | 0.00 | 0.00 | 31 | 1014.3 |
| 20260503221307 | 82 | 212 | 9.0 | 15.0 | 0.00 | 0.00 | 0.00 | 32 | 1014.3 |